Regional Weather Roundup
Issued by NWS

Home | Current Version | Previous Version | Graphics & Text | Print | Product List | Glossary On
Versions: 1 2 3 4 5 6 7 8 9 10 11 12 13 14 15 16 17 18 19 20 21 22 23 24 25 26 27 28 29 30 31 32 33 34 35 36 37 38 39 40 41 42 43 44 45 46 47 48 49 50
000
ASUS43 KLOT 292208
RWRIL

ILLINOIS REGIONAL WEATHER ROUNDUP
NATIONAL WEATHER SERVICE CHICAGO/ROMEOVILLE IL
500 PM CDT SAT AUG 29 2015

NOTE: "FAIR" INDICATES FEW OR NO CLOUDS BELOW 12,000 FEET WITH NO
SIGNIFICANT WEATHER AND/OR OBSTRUCTIONS TO VISIBILITY.

* THESE STATIONS ARE NOT UNDER NWS QUALITY CONTROL. THEY ALSO MAY NOT
  REPORT WEATHER SUCH AS PRECIPITATION OR FOG.

ILZ001-002-007-009-015-016-024-292300-
NORTHWEST ILLINOIS

CITY           SKY/WX    TMP DP  RH WIND       PRES   REMARKS
MOLINE         CLOUDY    74  67  78 N6        29.99S
STERLING*      CLOUDY    73  66  78 N3        29.99R
SAVANNA*       CLOUDY    73  65  75 NE3       30.00F
$$

ILZ003-004-008-010-011-017-018-292300-
NORTH CENTRAL ILLINOIS

CITY           SKY/WX    TMP DP  RH WIND       PRES   REMARKS
ROCKFORD       CLOUDY    72  64  76 N3        30.02S
FREEPORT*      CLOUDY    69  64  83 CALM      30.03S
ROCHELLE*      CLOUDY    71  66  85 N3        30.01S
DE KALB*       CLOUDY    71  66  84 CALM      30.01F
PERU*          CLOUDY    75  66  74 NW5       29.99F
$$

ILZ005-006-012>014-019>023-292300-
NORTHEAST ILLINOIS

CITY           SKY/WX    TMP DP  RH WIND       PRES   REMARKS
CHICAGO-OHARE  LGT RAIN  69  66  90 N3        30.00F
CHICAGO-MIDWAY CLOUDY    72  67  84 N6        30.00S
AURORA         CLOUDY    71  67  87 N3        30.00F
LANSING*       LGT RAIN  73  67  80 SW5       30.00S
JOLIET*        CLOUDY    76  69  78 CALM      29.99S
WAUKEGAN       CLOUDY    66  64  93 CALM      30.00F FOG
DUPAGE AIRPORT LGT RAIN  70  66  87 CALM      30.00S
KANKAKEE*      CLOUDY    75  70  84 CALM      30.00S
WHEELING       CLOUDY    70  64  81 CALM      30.01F
MORRIS*        CLOUDY    75  69  81 CALM      29.98S
ROMEOVILLE*    CLOUDY    72  67  82 NW3       30.00S
NORTHERLY ISL    N/A     67  64  90 NW1         N/A
$$

LMZ740>746-292300-
SOUTHERN LAKE MICHIGAN

STATION/POSITION SKY/WX   TEMP    WIND        PRES    VSBY  WAVE
                          AIR SEA DIR/SP/G                  HT/PER
                          (F)     (DEG/KT/KT) (MB)    (MI)  (FT/S)
SOUTHERN BUOY              68 68  100/ 10/ 12 1016.0F         2/ 3
WILMETTE HARBOR            58 55  190/  2/  2   N/A           2/ 4
HARRISON CRIB              67     340/  7/  8   N/A
BURNHAM HARBOR             67      CALM  /  4   N/A
BURNS HARBOR               74     180/  8/ 13 1016.3F
MICHIGAN CITY              71     120/  5/  7   N/A
MICHIGAN CITY 6N           71 71  150/  4/  6   N/A           1
ST. JOSEPH                 70 70  130/  4/  8   N/A           1
$$

ILZ025>027-034>036-040-047-049-050-058-095>099-292300-
WEST-CENTRAL ILLINOIS

CITY           SKY/WX    TMP DP  RH WIND       PRES   REMARKS
QUINCY         CLOUDY    79  68  69 NW5       29.98S HX  81
GALESBURG*     CLOUDY    76  67  75 CALM      29.99S
MACOMB*        CLOUDY    77  68  72 CALM      30.01S
JACKSONVILLE*  PTSUNNY   83  70  64 S8        29.97S HX  87
PITTSFIELD*    CLOUDY    81  69  66 CALM      29.99S HX  84
$$

ILZ028>032-037-038-041>044-048-051>054-059>061-292300-
CENTRAL ILLINOIS

CITY           SKY/WX    TMP DP  RH WIND       PRES   REMARKS
PONTIAC        PTSUNNY   79  70  73 S9        29.99S HX  81
BLOOMINGTON    PTSUNNY   77  70  79 S7        30.01S
DECATUR        PTSUNNY   80  66  62 SW9       30.00S HX  82
PEORIA         PTSUNNY   81  66  60 S6        29.98S HX  83
LACON*         MOSUNNY   77  67  71 N3        29.97F
LINCOLN*       CLOUDY    80  66  62 S5        29.98F HX  82
SPRINGFIELD    CLOUDY    82  67  60 S9        29.99S HX  84
TAYLORVILLE    CLOUDY    79  68  69 S7        30.00S HX  81
$$

ILZ033-039-045-046-055>057-062-063-292300-
EAST-CENTRAL ILLINOIS

CITY           SKY/WX    TMP DP  RH WIND       PRES   REMARKS
CHAMPAIGN      CLOUDY    80  67  64 S10       30.00F HX  82
RANTOUL*       CLOUDY    79  71  77 S7        29.99F HX  82
MATTOON        CLOUDY    78  65  63 S8        30.01F HX  80
PARIS*         CLOUDY    79  69  71 S7        30.02S HX  81
$$

ILZ079-100>102-292300-
SOUTHWEST ILLINOIS

CITY           SKY/WX    TMP DP  RH WIND       PRES   REMARKS
ALTON          CLOUDY    79  68  69 SE7       29.99  HX  81
BELLEVILLE     CLOUDY    77  69  75 E3        29.99S
CAHOKIA*       CLOUDY    80  67  64 S6        29.98F HX  82
SPARTA*        CLOUDY    76  67  74 S9        30.01F
$$

ILZ064>066-069>071-074>076-080>082-084>086-088>090-092>094-292300-
SOUTH-CENTRAL ILLINOIS

CITY           SKY/WX    TMP DP  RH WIND       PRES   REMARKS
CARBONDALE     LGT RAIN  77  68  73 CALM      30.00F
CAIRO*         CLOUDY    79  73  82 NW5       30.01S HX  82
EFFINGHAM*     CLOUDY    77  64  64 SE3       30.03S
MARION         CLOUDY    82  68  61 S9        30.02F HX  85
MT. VERNON     CLOUDY    75  66  73 CALM      30.02F
SALEM*         CLOUDY    79  70  73 S5        30.01S HX  81
METROPOLIS*    MOSUNNY   86  70  58 SW6       30.01S HX  91
$$

ILZ067-068-072-073-078-083-087-091-292300-
SOUTHEAST ILLINOIS

CITY           SKY/WX    TMP DP  RH WIND       PRES   REMARKS
LAWRENCEVILLE  CLOUDY    81  65  58 SW5       30.02F HX  83
FLORA*         CLOUDY    78  68  72 SW5       30.02F
FAIRFIELD*     CLOUDY    77  71  84 CALM      30.01F
HARRISBURG*    CLOUDY    84  69  60 NW7       30.01F HX  87
ROBINSON*      CLOUDY    80  66  61 S7        30.03S HX  82
CARMI*         CLOUDY    81  70  68 W3        30.01F HX  84
$$

ABBREVIATIONS USED IN REMARKS
   TC - TEMPERATURE IN CELSIUS
  WCI - WIND CHILL INDEX
   HX - HEAT INDEX
  VSB - VISIBILITY
$$



USA.gov is the U.S. government's official web portal to all federal, state and local government web resources and services.